This is the latest recevied weather packets stored in our database for station/object G7GQA-4. If no packets are shown the sender has not sent any weather packets the latest 10 day(s).
| Time | Temp. | Humidity | Pressure | Rain* | Wind** | Luminosity | Snow |
|---|---|---|---|---|---|---|---|
| 1777929922 | 9.44° C | 91% | - | 0 mm | - | 0 W/m² | - |
| 1777929322 | 9.44° C | 91% | - | 0 mm | - | 0 W/m² | - |
| 1777928722 | 9.44° C | 91% | - | 0 mm | - | 0 W/m² | - |
| 1777928122 | 9.44° C | 91% | - | 0 mm | - | 0 W/m² | - |
| 1777927522 | 10° C | 90% | - | 0 mm | - | 0 W/m² | - |
| 1777926922 | 10° C | 90% | - | 0 mm | - | 0 W/m² | - |
| 1777926322 | 10° C | 89% | - | 0 mm | - | 0 W/m² | - |
| 1777925722 | 10.56° C | 88% | - | 0 mm | - | 0 W/m² | - |
| 1777925122 | 11.11° C | 86% | - | 0 mm | - | 0 W/m² | - |
| 1777923922 | 12.22° C | 83% | - | 0 mm | - | 3 W/m² | - |
| 1777923322 | 12.22° C | 82% | - | 0 mm | - | 5 W/m² | - |
| 1777922722 | 12.78° C | 81% | - | 0 mm | - | 10 W/m² | - |
| 1777922122 | 13.33° C | 80% | - | 0 mm | - | 16 W/m² | - |
| 1777921522 | 13.33° C | 79% | - | 0 mm | - | 23 W/m² | - |
| 1777920922 | 13.89° C | 77% | - | 0 mm | - | 30 W/m² | - |
| 1777920322 | 13.89° C | 76% | - | 0 mm | - | 44 W/m² | - |
| 1777919722 | 14.44° C | 76% | - | 0 mm | - | 55 W/m² | - |
| 1777919122 | 14.44° C | 74% | - | 0 mm | - | 60 W/m² | - |
| 1777918522 | 14.44° C | 75% | - | 0 mm | - | 60 W/m² | - |
| 1777917922 | 14.44° C | 75% | - | 0 mm | - | 69 W/m² | - |
| 1777917322 | 14.44° C | 76% | - | 0 mm | - | 76 W/m² | - |
| 1777916722 | 14.44° C | 75% | - | 0 mm | - | 96 W/m² | - |
| 1777916122 | 15° C | 75% | - | 0 mm | - | 104 W/m² | - |
| 1777915522 | 14.44° C | 76% | - | 0 mm | - | 134 W/m² | - |
| 1777914922 | 14.44° C | 76% | - | 0 mm | - | 131 W/m² | - |
* Rain latest hour (hover to see other rain measurements)
** Current wind speed in m/s (hover to see current wind gust speed)